Year,Month,Day,Hour,Minute,Value (Times are PST for temperature in C)
2014,07,15,00,00,18.50
2014,07,15,00,01,18.50
2014,07,15,00,02,18.50
2014,07,15,00,03,18.40
2014,07,15,00,04,18.40
2014,07,15,00,05,18.30
2014,07,15,00,06,18.30
2014,07,15,00,07,18.30
2014,07,15,00,08,18.30
2014,07,15,00,09,18.30
2014,07,15,00,10,18.30
2014,07,15,00,11,18.30
2014,07,15,00,12,18.30
2014,07,15,00,13,18.30
2014,07,15,00,14,18.30
2014,07,15,00,15,18.30
2014,07,15,00,16,18.30
2014,07,15,00,17,18.20
2014,07,15,00,18,18.20
2014,07,15,00,19,18.20
2014,07,15,00,20,18.20
2014,07,15,00,21,18.20
2014,07,15,00,22,18.20
2014,07,15,00,23,18.20
2014,07,15,00,24,18.20
2014,07,15,00,25,18.20
2014,07,15,00,26,18.10
2014,07,15,00,27,18.10
2014,07,15,00,28,18.00
2014,07,15,00,29,17.90
2014,07,15,00,30,17.90
2014,07,15,00,31,17.90
2014,07,15,00,32,17.90
2014,07,15,00,33,17.90
2014,07,15,00,34,17.90
2014,07,15,00,35,17.90
2014,07,15,00,36,17.90
2014,07,15,00,37,17.90
2014,07,15,00,38,17.90
2014,07,15,00,39,17.90
2014,07,15,00,40,17.90
2014,07,15,00,41,17.90
2014,07,15,00,42,17.90
2014,07,15,00,43,17.90
2014,07,15,00,44,17.90
2014,07,15,00,45,17.90
2014,07,15,00,46,17.90
2014,07,15,00,47,17.90
2014,07,15,00,48,17.90
2014,07,15,00,49,17.90
2014,07,15,00,50,17.90
2014,07,15,00,51,17.90
2014,07,15,00,52,17.90
2014,07,15,00,53,17.90
2014,07,15,00,54,17.80
2014,07,15,00,55,17.80
2014,07,15,00,56,17.80
2014,07,15,00,57,17.70
2014,07,15,00,58,17.70
2014,07,15,00,59,17.70
2014,07,15,01,00,17.70
2014,07,15,01,01,17.70
2014,07,15,01,02,17.70
2014,07,15,01,03,17.70
2014,07,15,01,04,17.70
2014,07,15,01,05,17.70
2014,07,15,01,06,17.70
2014,07,15,01,07,17.60
2014,07,15,01,08,17.60
2014,07,15,01,09,17.60
2014,07,15,01,10,17.60
2014,07,15,01,11,17.60
2014,07,15,01,12,17.60
2014,07,15,01,13,17.60
2014,07,15,01,14,17.60
2014,07,15,01,15,17.60
2014,07,15,01,16,17.60
2014,07,15,01,17,17.60
2014,07,15,01,18,17.60
2014,07,15,01,19,17.60
2014,07,15,01,20,17.60
2014,07,15,01,21,17.50
2014,07,15,01,22,17.50
2014,07,15,01,23,17.50
2014,07,15,01,24,17.50
2014,07,15,01,25,17.50
2014,07,15,01,26,17.50
2014,07,15,01,27,17.40
2014,07,15,01,28,17.40
2014,07,15,01,29,17.40
2014,07,15,01,30,17.30
2014,07,15,01,31,17.30
2014,07,15,01,32,17.30
2014,07,15,01,33,17.30
2014,07,15,01,34,17.30
2014,07,15,01,35,17.30
2014,07,15,01,36,17.20
2014,07,15,01,37,17.20
2014,07,15,01,38,17.20
2014,07,15,01,39,17.10
2014,07,15,01,40,17.10
2014,07,15,01,41,17.00
2014,07,15,01,42,17.00
2014,07,15,01,43,17.00
2014,07,15,01,44,16.90
2014,07,15,01,45,16.90
2014,07,15,01,46,16.80
2014,07,15,01,47,16.80
2014,07,15,01,48,16.80
2014,07,15,01,49,16.70
2014,07,15,01,50,16.70
2014,07,15,01,51,16.70
2014,07,15,01,52,16.70
2014,07,15,01,53,16.70
2014,07,15,01,54,16.70
2014,07,15,01,55,16.70
2014,07,15,01,56,16.70
2014,07,15,01,57,16.70
2014,07,15,01,58,16.70
2014,07,15,01,59,16.60
2014,07,15,02,00,16.60
2014,07,15,02,01,16.40
2014,07,15,02,02,16.40
2014,07,15,02,03,16.30
2014,07,15,02,04,16.30
2014,07,15,02,05,16.20
2014,07,15,02,06,16.10
2014,07,15,02,07,16.10
2014,07,15,02,08,16.10
2014,07,15,02,09,16.10
2014,07,15,02,10,16.00
2014,07,15,02,11,15.90
2014,07,15,02,12,15.90
2014,07,15,02,13,15.90
2014,07,15,02,14,15.90
2014,07,15,02,15,15.90
2014,07,15,02,16,15.90
2014,07,15,02,17,15.90
2014,07,15,02,18,15.90
2014,07,15,02,19,15.90
2014,07,15,02,20,15.90
2014,07,15,02,21,15.90
2014,07,15,02,22,15.90
2014,07,15,02,23,15.90
2014,07,15,02,24,15.90
2014,07,15,02,25,16.10
2014,07,15,02,26,16.10
2014,07,15,02,27,16.10
2014,07,15,02,28,16.10
2014,07,15,02,29,16.10
2014,07,15,02,30,16.10
2014,07,15,02,31,16.10
2014,07,15,02,32,16.10
2014,07,15,02,33,16.10
2014,07,15,02,34,16.10
2014,07,15,02,35,16.10
2014,07,15,02,36,16.10
2014,07,15,02,37,16.10
2014,07,15,02,38,16.10
2014,07,15,02,39,16.10
2014,07,15,02,40,16.10
2014,07,15,02,41,16.10
2014,07,15,02,42,16.10
2014,07,15,02,43,16.10
2014,07,15,02,44,16.00
2014,07,15,02,45,15.90
2014,07,15,02,46,15.90
2014,07,15,02,47,15.90
2014,07,15,02,48,15.80
2014,07,15,02,49,15.80
2014,07,15,02,50,15.80
2014,07,15,02,51,15.80
2014,07,15,02,52,15.80
2014,07,15,02,53,15.80
2014,07,15,02,54,15.80
2014,07,15,02,55,15.90
2014,07,15,02,56,15.90
2014,07,15,02,57,15.90
2014,07,15,02,58,15.90
2014,07,15,02,59,15.90
2014,07,15,03,00,15.90
2014,07,15,03,01,15.90
2014,07,15,03,02,15.90
2014,07,15,03,03,15.90
2014,07,15,03,04,15.90
2014,07,15,03,05,15.80
2014,07,15,03,06,15.80
2014,07,15,03,07,15.80
2014,07,15,03,08,15.80
2014,07,15,03,09,15.80
2014,07,15,03,10,15.80
2014,07,15,03,11,15.80
2014,07,15,03,12,15.80
2014,07,15,03,13,15.80
2014,07,15,03,14,15.80
2014,07,15,03,15,15.80
2014,07,15,03,16,15.70
2014,07,15,03,17,15.70
2014,07,15,03,18,15.70
2014,07,15,03,19,15.70
2014,07,15,03,20,15.70
2014,07,15,03,21,15.70
2014,07,15,03,22,15.60
2014,07,15,03,23,15.60
2014,07,15,03,24,15.60
2014,07,15,03,25,15.60
2014,07,15,03,26,15.50
2014,07,15,03,27,15.50
2014,07,15,03,28,15.50
2014,07,15,03,29,15.50
2014,07,15,03,30,15.50
2014,07,15,03,31,15.40
2014,07,15,03,32,15.40
2014,07,15,03,33,15.40
2014,07,15,03,34,15.40
2014,07,15,03,35,15.30
2014,07,15,03,36,15.30
2014,07,15,03,37,15.30
2014,07,15,03,38,15.30
2014,07,15,03,39,15.30
2014,07,15,03,40,15.30
2014,07,15,03,41,15.30
2014,07,15,03,42,15.30
2014,07,15,03,43,15.20
2014,07,15,03,44,15.20
2014,07,15,03,45,15.20
2014,07,15,03,46,15.10
2014,07,15,03,47,15.10
2014,07,15,03,48,15.10
2014,07,15,03,49,15.10
2014,07,15,03,50,15.10
2014,07,15,03,51,15.10
2014,07,15,03,52,15.00
2014,07,15,03,53,15.00
2014,07,15,03,54,15.00
2014,07,15,03,55,15.00
2014,07,15,03,56,15.00
2014,07,15,03,57,15.00
2014,07,15,03,58,14.90
2014,07,15,03,59,14.90
2014,07,15,04,00,14.90
2014,07,15,04,01,14.90
2014,07,15,04,02,14.90
2014,07,15,04,03,14.90
2014,07,15,04,04,14.90
2014,07,15,04,05,14.90
2014,07,15,04,06,14.90
2014,07,15,04,07,14.90
2014,07,15,04,08,14.90
2014,07,15,04,09,14.90
2014,07,15,04,10,14.90
2014,07,15,04,11,14.90
2014,07,15,04,12,14.90
2014,07,15,04,13,14.90
2014,07,15,04,14,14.90
2014,07,15,04,15,14.90
2014,07,15,04,16,14.90
2014,07,15,04,17,14.90
2014,07,15,04,18,14.90
2014,07,15,04,19,14.80
2014,07,15,04,20,14.80
2014,07,15,04,21,14.80
2014,07,15,04,22,14.80
2014,07,15,04,23,14.80
2014,07,15,04,24,14.80
2014,07,15,04,25,14.80
2014,07,15,04,26,14.80
2014,07,15,04,27,14.80
2014,07,15,04,28,14.80
2014,07,15,04,29,14.80
2014,07,15,04,30,14.80
2014,07,15,04,31,14.80
2014,07,15,04,32,14.80
2014,07,15,04,33,14.80
2014,07,15,04,34,14.80
2014,07,15,04,35,14.80
2014,07,15,04,36,14.80
2014,07,15,04,37,14.70
2014,07,15,04,38,14.70
2014,07,15,04,39,14.70
2014,07,15,04,40,14.70
2014,07,15,04,41,14.60
2014,07,15,04,42,14.60
2014,07,15,04,43,14.60
2014,07,15,04,44,14.60
2014,07,15,04,45,14.50
2014,07,15,04,46,14.50
2014,07,15,04,47,14.50
2014,07,15,04,48,14.50
2014,07,15,04,49,14.50
2014,07,15,04,50,14.40
2014,07,15,04,51,14.40
2014,07,15,04,52,14.40
2014,07,15,04,53,14.40
2014,07,15,04,54,14.40
2014,07,15,04,55,14.40
2014,07,15,04,56,14.40
2014,07,15,04,57,14.40
2014,07,15,04,58,14.40
2014,07,15,04,59,14.30
2014,07,15,05,00,14.30
2014,07,15,05,01,14.30
2014,07,15,05,02,14.30
2014,07,15,05,03,14.30
2014,07,15,05,04,14.20
2014,07,15,05,05,14.20
2014,07,15,05,06,14.20
2014,07,15,05,07,14.20
2014,07,15,05,08,14.20
2014,07,15,05,09,14.20
2014,07,15,05,10,14.20
2014,07,15,05,11,14.20
2014,07,15,05,12,14.20
2014,07,15,05,13,14.20
2014,07,15,05,14,14.20
2014,07,15,05,15,14.20
2014,07,15,05,16,14.20
2014,07,15,05,17,14.10
2014,07,15,05,18,14.10
2014,07,15,05,19,14.10
2014,07,15,05,20,14.10
2014,07,15,05,21,14.00
2014,07,15,05,22,14.00
2014,07,15,05,23,14.00
2014,07,15,05,24,14.00
2014,07,15,05,25,14.00
2014,07,15,05,26,14.00
2014,07,15,05,27,14.00
2014,07,15,05,28,13.90
2014,07,15,05,29,13.90
2014,07,15,05,30,13.90
2014,07,15,05,31,13.90
2014,07,15,05,32,13.80
2014,07,15,05,33,13.80
2014,07,15,05,34,13.80
2014,07,15,05,35,13.70
2014,07,15,05,36,13.70
2014,07,15,05,37,13.70
2014,07,15,05,38,13.70
2014,07,15,05,39,13.70
2014,07,15,05,40,13.70
2014,07,15,05,41,13.70
2014,07,15,05,42,13.70
2014,07,15,05,43,13.70
2014,07,15,05,44,13.70
2014,07,15,05,45,13.70
2014,07,15,05,46,13.70
2014,07,15,05,47,13.70
2014,07,15,05,48,13.70
2014,07,15,05,49,13.70
2014,07,15,05,50,13.70
2014,07,15,05,51,13.70
2014,07,15,05,52,13.70
2014,07,15,05,53,13.70
2014,07,15,05,54,13.70
2014,07,15,05,55,13.70
2014,07,15,05,56,13.70
2014,07,15,05,57,13.70
2014,07,15,05,58,13.70
2014,07,15,05,59,13.70
2014,07,15,06,00,13.80
2014,07,15,06,01,13.80
2014,07,15,06,02,13.80
2014,07,15,06,03,13.90
2014,07,15,06,04,13.90
2014,07,15,06,05,13.90
2014,07,15,06,06,14.00
2014,07,15,06,07,14.00
2014,07,15,06,08,14.00
2014,07,15,06,09,14.00
2014,07,15,06,10,14.10
2014,07,15,06,11,14.10
2014,07,15,06,12,14.10
2014,07,15,06,13,14.20
2014,07,15,06,14,14.20
2014,07,15,06,15,14.20
2014,07,15,06,16,14.20
2014,07,15,06,17,14.20
2014,07,15,06,18,14.20
2014,07,15,06,19,14.20
2014,07,15,06,20,14.20
2014,07,15,06,21,14.20
2014,07,15,06,22,14.30
2014,07,15,06,23,14.30
2014,07,15,06,24,14.40
2014,07,15,06,25,14.40
2014,07,15,06,26,14.40
2014,07,15,06,27,14.50
2014,07,15,06,28,14.50
2014,07,15,06,29,14.60
2014,07,15,06,30,14.60
2014,07,15,06,31,14.70
2014,07,15,06,32,14.70
2014,07,15,06,33,14.70
2014,07,15,06,34,14.70
2014,07,15,06,35,14.70
2014,07,15,06,36,14.80
2014,07,15,06,37,14.80
2014,07,15,06,38,14.80
2014,07,15,06,39,14.80
2014,07,15,06,40,14.80
2014,07,15,06,41,14.80
2014,07,15,06,42,14.90
2014,07,15,06,43,15.00
2014,07,15,06,44,15.00
2014,07,15,06,45,15.10
2014,07,15,06,46,15.20
2014,07,15,06,47,15.30
2014,07,15,06,48,15.30
2014,07,15,06,49,15.40
2014,07,15,06,50,15.50
2014,07,15,06,51,15.50
2014,07,15,06,52,15.60
2014,07,15,06,53,15.60
2014,07,15,06,54,15.70
2014,07,15,06,55,15.70
2014,07,15,06,56,15.80
2014,07,15,06,57,15.80
2014,07,15,06,58,15.90
2014,07,15,06,59,15.90
2014,07,15,07,00,16.10
2014,07,15,07,01,16.10
2014,07,15,07,02,16.20
2014,07,15,07,03,16.20
2014,07,15,07,04,16.30
2014,07,15,07,05,16.30
2014,07,15,07,06,16.30
2014,07,15,07,07,16.30
2014,07,15,07,08,16.30
2014,07,15,07,09,16.30
2014,07,15,07,10,16.30
2014,07,15,07,11,16.30
2014,07,15,07,12,16.30
2014,07,15,07,13,16.40
2014,07,15,07,14,16.40
2014,07,15,07,15,16.50
2014,07,15,07,16,16.60
2014,07,15,07,17,16.70
2014,07,15,07,18,16.70
2014,07,15,07,19,16.70
2014,07,15,07,20,16.70
2014,07,15,07,21,16.80
2014,07,15,07,22,16.80
2014,07,15,07,23,16.80
2014,07,15,07,24,16.80
2014,07,15,07,25,16.80
2014,07,15,07,26,16.80
2014,07,15,07,27,16.80
2014,07,15,07,28,16.80
2014,07,15,07,29,16.80
2014,07,15,07,30,16.70
2014,07,15,07,31,16.70
2014,07,15,07,32,16.70
2014,07,15,07,33,16.70
2014,07,15,07,34,16.60
2014,07,15,07,35,16.60
2014,07,15,07,36,16.60
2014,07,15,07,37,16.70
2014,07,15,07,38,16.70
2014,07,15,07,39,16.70
2014,07,15,07,40,16.70
2014,07,15,07,41,16.70
2014,07,15,07,42,16.70
2014,07,15,07,43,16.70
2014,07,15,07,44,16.70
2014,07,15,07,45,16.70
2014,07,15,07,46,16.70
2014,07,15,07,47,16.70
2014,07,15,07,48,16.70
2014,07,15,07,49,16.70
2014,07,15,07,50,16.60
2014,07,15,07,51,16.60
2014,07,15,07,52,16.60
2014,07,15,07,53,16.60
2014,07,15,07,54,16.50
2014,07,15,07,55,16.40
2014,07,15,07,56,16.40
2014,07,15,07,57,16.40
2014,07,15,07,58,16.30
2014,07,15,07,59,16.20
2014,07,15,08,00,16.20
2014,07,15,08,01,16.20
2014,07,15,08,02,16.10
2014,07,15,08,03,16.10
2014,07,15,08,04,16.10
2014,07,15,08,05,16.10
2014,07,15,08,06,16.10
2014,07,15,08,07,16.10
2014,07,15,08,08,16.20
2014,07,15,08,09,16.30
2014,07,15,08,10,16.30
2014,07,15,08,11,16.30
2014,07,15,08,12,16.40
2014,07,15,08,13,16.40
2014,07,15,08,14,16.40
2014,07,15,08,15,16.50
2014,07,15,08,16,16.60
2014,07,15,08,17,16.60
2014,07,15,08,18,16.60
2014,07,15,08,19,16.60
2014,07,15,08,20,16.60
2014,07,15,08,21,16.60
2014,07,15,08,22,16.60
2014,07,15,08,23,16.70
2014,07,15,08,24,16.90
2014,07,15,08,25,17.00
2014,07,15,08,26,17.10
2014,07,15,08,27,17.20
2014,07,15,08,28,17.40
2014,07,15,08,29,17.50
2014,07,15,08,30,17.60
2014,07,15,08,31,17.60
2014,07,15,08,32,17.60
2014,07,15,08,33,17.60
2014,07,15,08,34,17.60
2014,07,15,08,35,17.50
2014,07,15,08,36,17.50
2014,07,15,08,37,17.50
2014,07,15,08,38,17.40
2014,07,15,08,39,17.40
2014,07,15,08,40,17.40
2014,07,15,08,41,17.30
2014,07,15,08,42,17.10
2014,07,15,08,43,17.00
2014,07,15,08,44,17.00
2014,07,15,08,45,17.00
2014,07,15,08,46,17.00
2014,07,15,08,47,16.90
2014,07,15,08,48,16.80
2014,07,15,08,49,16.70
2014,07,15,08,50,16.70
2014,07,15,08,51,16.70
2014,07,15,08,52,16.70
2014,07,15,08,53,16.80
2014,07,15,08,54,16.80
2014,07,15,08,55,16.80
2014,07,15,08,56,16.80
2014,07,15,08,57,16.90
2014,07,15,08,58,16.90
2014,07,15,08,59,16.80
2014,07,15,09,00,16.60
2014,07,15,09,01,16.40
2014,07,15,09,02,16.30
2014,07,15,09,03,16.30
2014,07,15,09,04,16.20
2014,07,15,09,05,16.10
2014,07,15,09,06,16.00
2014,07,15,09,07,15.90
2014,07,15,09,08,15.80
2014,07,15,09,09,15.80
2014,07,15,09,10,15.70
2014,07,15,09,11,15.70
2014,07,15,09,12,15.60
2014,07,15,09,13,15.50
2014,07,15,09,14,15.40
2014,07,15,09,15,15.20
2014,07,15,09,16,15.10
2014,07,15,09,17,14.90
2014,07,15,09,18,14.80
2014,07,15,09,19,14.80
2014,07,15,09,20,14.60
2014,07,15,09,21,14.50
2014,07,15,09,22,14.40
2014,07,15,09,23,14.30
2014,07,15,09,24,14.30
2014,07,15,09,25,14.20
2014,07,15,09,26,14.20
2014,07,15,09,27,14.10
2014,07,15,09,28,14.00
2014,07,15,09,29,13.90
2014,07,15,09,30,14.00
2014,07,15,09,31,14.00
2014,07,15,09,32,13.90
2014,07,15,09,33,13.90
2014,07,15,09,34,14.00
2014,07,15,09,35,14.10
2014,07,15,09,36,14.10
2014,07,15,09,37,14.20
2014,07,15,09,38,14.20
2014,07,15,09,39,14.10
2014,07,15,09,40,14.10
2014,07,15,09,41,14.20
2014,07,15,09,42,14.20
2014,07,15,09,43,14.30
2014,07,15,09,44,14.30
2014,07,15,09,45,14.40
2014,07,15,09,46,14.40
2014,07,15,09,47,14.40
2014,07,15,09,48,14.40
2014,07,15,09,49,14.40
2014,07,15,09,50,14.40
2014,07,15,09,51,14.40
2014,07,15,09,52,14.50
2014,07,15,09,53,14.50
2014,07,15,09,54,14.60
2014,07,15,09,55,14.60
2014,07,15,09,56,14.60
2014,07,15,09,57,14.60
2014,07,15,09,58,14.70
2014,07,15,09,59,14.80
2014,07,15,10,00,14.80
2014,07,15,10,01,14.90
2014,07,15,10,02,14.90
2014,07,15,10,03,14.90
2014,07,15,10,04,14.90
2014,07,15,10,05,15.00
2014,07,15,10,06,15.00
2014,07,15,10,07,15.00
2014,07,15,10,08,14.90
2014,07,15,10,09,14.80
2014,07,15,10,10,14.80
2014,07,15,10,11,14.90
2014,07,15,10,12,14.90
2014,07,15,10,13,15.00
2014,07,15,10,14,15.10
2014,07,15,10,15,15.30
2014,07,15,10,16,15.50
2014,07,15,10,17,15.70
2014,07,15,10,18,15.80
2014,07,15,10,19,15.90
2014,07,15,10,20,15.90
2014,07,15,10,21,15.90
2014,07,15,10,22,15.90
2014,07,15,10,23,15.80
2014,07,15,10,24,15.80
2014,07,15,10,25,15.80
2014,07,15,10,26,15.80
2014,07,15,10,27,15.90
2014,07,15,10,28,15.90
2014,07,15,10,29,15.90
2014,07,15,10,30,15.90
2014,07,15,10,31,15.90
2014,07,15,10,32,16.00
2014,07,15,10,33,16.10
2014,07,15,10,34,16.20
2014,07,15,10,35,16.40
2014,07,15,10,36,16.40
2014,07,15,10,37,16.40
2014,07,15,10,38,16.40
2014,07,15,10,39,16.30
2014,07,15,10,40,16.30
2014,07,15,10,41,16.30
2014,07,15,10,42,16.30
2014,07,15,10,43,16.40
2014,07,15,10,44,16.40
2014,07,15,10,45,16.40
2014,07,15,10,46,16.50
2014,07,15,10,47,16.60
2014,07,15,10,48,16.60
2014,07,15,10,49,16.70
2014,07,15,10,50,16.70
2014,07,15,10,51,16.60
2014,07,15,10,52,16.50
2014,07,15,10,53,16.40
2014,07,15,10,54,16.40
2014,07,15,10,55,16.30
2014,07,15,10,56,16.20
2014,07,15,10,57,16.20
2014,07,15,10,58,16.20
2014,07,15,10,59,16.10
2014,07,15,11,00,16.20
2014,07,15,11,01,16.30
2014,07,15,11,02,16.40
2014,07,15,11,03,16.40
2014,07,15,11,04,16.60
2014,07,15,11,05,16.60
2014,07,15,11,06,16.40
2014,07,15,11,07,16.40
2014,07,15,11,08,16.40
2014,07,15,11,09,16.40
2014,07,15,11,10,16.40
2014,07,15,11,11,16.50
2014,07,15,11,12,16.60
2014,07,15,11,13,16.70
2014,07,15,11,14,16.70
2014,07,15,11,15,16.80
2014,07,15,11,16,16.80
2014,07,15,11,17,16.90
2014,07,15,11,18,16.90
2014,07,15,11,19,17.00
2014,07,15,11,20,17.10
2014,07,15,11,21,17.20
2014,07,15,11,22,17.20
2014,07,15,11,23,17.30
2014,07,15,11,24,17.40
2014,07,15,11,25,17.50
2014,07,15,11,26,17.70
2014,07,15,11,27,17.80
2014,07,15,11,28,17.90
2014,07,15,11,29,18.00
2014,07,15,11,30,18.10
2014,07,15,11,31,18.10
2014,07,15,11,32,18.20
2014,07,15,11,33,18.10
2014,07,15,11,34,18.20
2014,07,15,11,35,18.30
2014,07,15,11,36,18.30
2014,07,15,11,37,18.40
2014,07,15,11,38,18.40
2014,07,15,11,39,18.30
2014,07,15,11,40,18.40
2014,07,15,11,41,18.40
2014,07,15,11,42,18.30
2014,07,15,11,43,18.30
2014,07,15,11,44,18.40
2014,07,15,11,45,18.40
2014,07,15,11,46,18.40
2014,07,15,11,47,18.40
2014,07,15,11,48,18.50
2014,07,15,11,49,18.50
2014,07,15,11,50,18.50
2014,07,15,11,51,18.30
2014,07,15,11,52,18.20
2014,07,15,11,53,18.10
2014,07,15,11,54,18.00
2014,07,15,11,55,17.90
2014,07,15,11,56,18.10
2014,07,15,11,57,18.20
2014,07,15,11,58,18.30
2014,07,15,11,59,18.40
2014,07,15,12,00,18.40
2014,07,15,12,01,18.40
2014,07,15,12,02,18.40
2014,07,15,12,03,18.50
2014,07,15,12,04,18.50
2014,07,15,12,05,18.50
2014,07,15,12,06,18.60
2014,07,15,12,07,18.60
2014,07,15,12,08,18.60
2014,07,15,12,09,18.60
2014,07,15,12,10,18.80
2014,07,15,12,11,18.90
2014,07,15,12,12,18.90
2014,07,15,12,13,18.90
2014,07,15,12,14,18.90
2014,07,15,12,15,18.90
2014,07,15,12,16,19.00
2014,07,15,12,17,19.10
2014,07,15,12,18,19.10
2014,07,15,12,19,19.20
2014,07,15,12,20,19.40
2014,07,15,12,21,19.50
2014,07,15,12,22,19.60
2014,07,15,12,23,19.60
2014,07,15,12,24,19.60
2014,07,15,12,25,19.60
2014,07,15,12,26,19.60
2014,07,15,12,27,19.80
2014,07,15,12,28,20.00
2014,07,15,12,29,20.10
2014,07,15,12,30,20.10
2014,07,15,12,31,20.10
2014,07,15,12,32,20.20
2014,07,15,12,33,20.30
2014,07,15,12,34,20.40
2014,07,15,12,35,20.50
2014,07,15,12,36,20.50
2014,07,15,12,37,20.70
2014,07,15,12,38,20.80
2014,07,15,12,39,20.90
2014,07,15,12,40,21.00
2014,07,15,12,41,20.90
2014,07,15,12,42,20.80
2014,07,15,12,43,20.70
2014,07,15,12,44,20.60
2014,07,15,12,45,20.40
2014,07,15,12,46,20.40
2014,07,15,12,47,20.40
2014,07,15,12,48,20.40
2014,07,15,12,49,20.40
2014,07,15,12,50,20.50
2014,07,15,12,51,20.60
2014,07,15,12,52,20.60
2014,07,15,12,53,20.50
2014,07,15,12,54,20.50
2014,07,15,12,55,20.50
2014,07,15,12,56,20.60
2014,07,15,12,57,20.60
2014,07,15,12,58,20.60
2014,07,15,12,59,20.50
2014,07,15,13,00,20.40
2014,07,15,13,01,20.30
2014,07,15,13,02,20.20
2014,07,15,13,03,20.20
2014,07,15,13,04,20.20
2014,07,15,13,05,20.20
2014,07,15,13,06,20.20
2014,07,15,13,07,20.20
2014,07,15,13,08,20.20
2014,07,15,13,09,20.20
2014,07,15,13,10,20.20
2014,07,15,13,11,20.30
2014,07,15,13,12,20.30
2014,07,15,13,13,20.30
2014,07,15,13,14,20.30
2014,07,15,13,15,20.30
2014,07,15,13,16,20.30
2014,07,15,13,17,20.30
2014,07,15,13,18,20.30
2014,07,15,13,19,20.30
2014,07,15,13,20,20.30
2014,07,15,13,21,20.30
2014,07,15,13,22,20.20
2014,07,15,13,23,20.20
2014,07,15,13,24,20.20
2014,07,15,13,25,20.20
2014,07,15,13,26,20.30
2014,07,15,13,27,20.40
2014,07,15,13,28,20.60
2014,07,15,13,29,20.60
2014,07,15,13,30,20.60
2014,07,15,13,31,20.70
2014,07,15,13,32,20.60
2014,07,15,13,33,20.70
2014,07,15,13,34,20.70
2014,07,15,13,35,20.70
2014,07,15,13,36,20.80
2014,07,15,13,37,20.80
2014,07,15,13,38,20.90
2014,07,15,13,39,20.90
2014,07,15,13,40,20.90
2014,07,15,13,41,21.00
2014,07,15,13,42,21.00
2014,07,15,13,43,21.10
2014,07,15,13,44,21.20
2014,07,15,13,45,21.10
2014,07,15,13,46,21.10
2014,07,15,13,47,21.10
2014,07,15,13,48,21.10
2014,07,15,13,49,21.10
2014,07,15,13,50,21.10
2014,07,15,13,51,21.10
2014,07,15,13,52,21.00
2014,07,15,13,53,20.80
2014,07,15,13,54,20.60
2014,07,15,13,55,20.40
2014,07,15,13,56,20.30
2014,07,15,13,57,20.20
2014,07,15,13,58,20.20
2014,07,15,13,59,20.30
2014,07,15,14,00,20.50
2014,07,15,14,01,20.60
2014,07,15,14,02,20.70
2014,07,15,14,03,20.60
2014,07,15,14,04,20.50
2014,07,15,14,05,20.50
2014,07,15,14,06,20.30
2014,07,15,14,07,20.20
2014,07,15,14,08,20.20
2014,07,15,14,09,20.10
2014,07,15,14,10,20.10
2014,07,15,14,11,20.10
2014,07,15,14,12,20.10
2014,07,15,14,13,20.10
2014,07,15,14,14,20.10
2014,07,15,14,15,20.20
2014,07,15,14,16,20.30
2014,07,15,14,17,20.40
2014,07,15,14,18,20.40
2014,07,15,14,19,20.40
2014,07,15,14,20,20.40
2014,07,15,14,21,20.50
2014,07,15,14,22,20.50
2014,07,15,14,23,20.60
2014,07,15,14,24,20.60
2014,07,15,14,25,20.50
2014,07,15,14,26,20.50
2014,07,15,14,27,20.60
2014,07,15,14,28,20.70
2014,07,15,14,29,20.80
2014,07,15,14,30,20.90
2014,07,15,14,31,20.90
2014,07,15,14,32,21.00
2014,07,15,14,33,21.10
2014,07,15,14,34,21.20
2014,07,15,14,35,21.20
2014,07,15,14,36,21.30
2014,07,15,14,37,21.30
2014,07,15,14,38,21.30
2014,07,15,14,39,21.30
2014,07,15,14,40,21.40
2014,07,15,14,41,21.40
2014,07,15,14,42,21.50
2014,07,15,14,43,21.60
2014,07,15,14,44,21.60
2014,07,15,14,45,21.60
2014,07,15,14,46,21.60
2014,07,15,14,47,21.60
2014,07,15,14,48,21.60
2014,07,15,14,49,21.60
2014,07,15,14,50,21.60
2014,07,15,14,51,21.60
2014,07,15,14,52,21.60
2014,07,15,14,53,21.60
2014,07,15,14,54,21.60
2014,07,15,14,55,21.60
2014,07,15,14,56,21.60
2014,07,15,14,57,21.60
2014,07,15,14,58,21.60
2014,07,15,14,59,21.60
2014,07,15,15,00,21.70
2014,07,15,15,01,21.90
2014,07,15,15,02,21.90
2014,07,15,15,03,21.90
2014,07,15,15,04,21.90
2014,07,15,15,05,21.90
2014,07,15,15,06,21.90
2014,07,15,15,07,21.90
2014,07,15,15,08,21.90
2014,07,15,15,09,21.90
2014,07,15,15,10,22.00
2014,07,15,15,11,21.90
2014,07,15,15,12,21.90
2014,07,15,15,13,21.90
2014,07,15,15,14,22.00
2014,07,15,15,15,22.00
2014,07,15,15,16,22.10
2014,07,15,15,17,22.20
2014,07,15,15,18,22.20
2014,07,15,15,19,22.10
2014,07,15,15,20,22.00
2014,07,15,15,21,22.00
2014,07,15,15,22,22.00
2014,07,15,15,23,22.00
2014,07,15,15,24,22.00
2014,07,15,15,25,22.10
2014,07,15,15,26,22.10
2014,07,15,15,27,22.20
2014,07,15,15,28,22.30
2014,07,15,15,29,22.30
2014,07,15,15,30,22.20
2014,07,15,15,31,22.10
2014,07,15,15,32,22.00
2014,07,15,15,33,22.00
2014,07,15,15,34,21.90
2014,07,15,15,35,21.80
2014,07,15,15,36,21.70
2014,07,15,15,37,21.60
2014,07,15,15,38,21.60
2014,07,15,15,39,21.60
2014,07,15,15,40,21.60
2014,07,15,15,41,21.60
2014,07,15,15,42,21.60
2014,07,15,15,43,21.60
2014,07,15,15,44,21.50
2014,07,15,15,45,21.40
2014,07,15,15,46,21.30
2014,07,15,15,47,21.20
2014,07,15,15,48,21.20
2014,07,15,15,49,21.30
2014,07,15,15,50,21.30
2014,07,15,15,51,21.30
2014,07,15,15,52,21.50
2014,07,15,15,53,21.60
2014,07,15,15,54,21.60
2014,07,15,15,55,21.60
2014,07,15,15,56,21.50
2014,07,15,15,57,21.40
2014,07,15,15,58,21.30
2014,07,15,15,59,21.30
2014,07,15,16,00,21.20
2014,07,15,16,01,21.10
2014,07,15,16,02,21.00
2014,07,15,16,03,20.90
2014,07,15,16,04,21.00
2014,07,15,16,05,21.00
2014,07,15,16,06,21.00
2014,07,15,16,07,21.10
2014,07,15,16,08,21.10
2014,07,15,16,09,21.10
2014,07,15,16,10,21.10
2014,07,15,16,11,21.30
2014,07,15,16,12,21.30
2014,07,15,16,13,21.20
2014,07,15,16,14,20.90
2014,07,15,16,15,20.40
2014,07,15,16,16,19.90
2014,07,15,16,17,19.50
2014,07,15,16,18,19.30
2014,07,15,16,19,19.20
2014,07,15,16,20,19.20
2014,07,15,16,21,19.40
2014,07,15,16,22,19.40
2014,07,15,16,23,19.40
2014,07,15,16,24,19.40
2014,07,15,16,25,19.60
2014,07,15,16,26,19.70
2014,07,15,16,27,19.90
2014,07,15,16,28,20.10
2014,07,15,16,29,20.30
2014,07,15,16,30,20.40
2014,07,15,16,31,20.50
2014,07,15,16,32,20.70
2014,07,15,16,33,20.80
2014,07,15,16,34,20.90
2014,07,15,16,35,21.00
2014,07,15,16,36,21.10
2014,07,15,16,37,21.10
2014,07,15,16,38,21.10
2014,07,15,16,39,21.20
2014,07,15,16,40,21.20
2014,07,15,16,41,21.20
2014,07,15,16,42,21.20
2014,07,15,16,43,21.20
2014,07,15,16,44,21.20
2014,07,15,16,45,21.30
2014,07,15,16,46,21.30
2014,07,15,16,47,21.40
2014,07,15,16,48,21.40
2014,07,15,16,49,21.30
2014,07,15,16,50,21.20
2014,07,15,16,51,21.20
2014,07,15,16,52,21.10
2014,07,15,16,53,21.00
2014,07,15,16,54,21.00
2014,07,15,16,55,20.90
2014,07,15,16,56,20.90
2014,07,15,16,57,20.80
2014,07,15,16,58,20.80
2014,07,15,16,59,20.80
2014,07,15,17,00,20.80
2014,07,15,17,01,20.80
2014,07,15,17,02,20.80
2014,07,15,17,03,20.80
2014,07,15,17,04,20.90
2014,07,15,17,05,20.90
2014,07,15,17,06,20.90
2014,07,15,17,07,20.90
2014,07,15,17,08,20.90
2014,07,15,17,09,20.80
2014,07,15,17,10,20.70
2014,07,15,17,11,20.60
2014,07,15,17,12,20.50
2014,07,15,17,13,20.40
2014,07,15,17,14,20.40
2014,07,15,17,15,20.30
2014,07,15,17,16,20.40
2014,07,15,17,17,20.50
2014,07,15,17,18,20.50
2014,07,15,17,19,20.60